{"data":{"norad_id":59186,"intl_designator":"2024-045J","name":"STARLINK-31403","alt_names":[],"object_type":"PAYLOAD","status":"ACTIVE","operator":null,"country":"US","launch_date":"2024-03-10","launch_site_code":"AFETR","launch_vehicle":null,"mission":null,"orbit_class":"UNKNOWN","rcs_meters":null,"size_class":null,"mass_kg":null,"dimensions":null,"purposes":["comms"],"wikipedia_slug":null,"has_3d_model":false,"image_url":null,"decayed_at":null,"tle_current":{"epoch":"2026-05-24T15:34:44.100192Z","epoch_age_seconds":102538,"freshness":"FRESH","line1":"1 59186U 24045J   26144.64912153 -.00000620  00000+0 -13015-4 0  9995","line2":"2 59186  43.0064   2.1371 0001681 274.1671  85.8988 15.27577924124963","mean_motion":15.27577924,"eccentricity":0.0001681,"inclination_deg":43.0064,"raan_deg":2.1371,"arg_perigee_deg":274.1671,"mean_anomaly_deg":85.8988,"bstar":-1.3015e-5,"rev_number":12496,"period_min":94.266876823496,"perigee_km":481.90194590983,"apogee_km":484.20867876523,"semimajor_km":6861.1923123375,"source":"CELESTRAK","updated_at":"2026-05-25T13:38:18.860232Z"}}}